GW1213 Weather Reports


time (UTC)temp
C
wind
direction
speed
KPH
gust
KPH
rain 1hr
cm
rain 24hr
cm
rain mn
cm
humidity
%
barometer
mb
20260505040051 19 191 0.0 8.0 0.00 0.00 0.00 50 1010.4
20260505035537 19 0 0.0 8.0 0.00 0.00 0.00 50 1010.4
20260505035039 19 147 0.0 6.4 0.00 0.00 0.00 50 1010.5
20260505034549 19 0 0.0 4.8 0.00 0.00 0.00 50 1010.5
20260505034038 19 0 0.0 4.8 0.00 0.00 0.00 50 1010.5
20260505033538 19 0 0.0 4.8 0.00 0.00 0.00 50 1010.5
20260505033052 19 229 0.0 4.8 0.00 0.00 0.00 50 1010.5
20260505032536 19 0 0.0 6.4 0.00 0.00 0.00 50 1010.5
20260505032036 19 0 0.0 8.0 0.00 0.00 0.00 51 1010.6
20260505031548 19 159 1.6 8.0 0.00 0.00 0.00 52 1010.7
20260505031038 18 0 0.0 6.4 0.00 0.00 0.00 52 1010.6
20260505030539 18 0 1.6 6.4 0.00 0.00 0.00 53 1010.6
20260505030104 18 0 0.0 4.8 0.00 0.00 0.00 56 1010.6
20260505025542 18 0 0.0 4.8 0.00 0.00 0.00 55 1010.7
20260505025038 18 0 0.0 1.6 0.00 0.00 0.00 57 1010.7
20260505024551 18 0 0.0 1.6 0.00 0.00 0.00 56 1010.6
20260505024038 18 0 0.0 0.0 0.00 0.00 0.00 56 1010.7
20260505023538 18 0 0.0 0.0 0.00 0.00 0.00 56 1010.6
20260505023102 18 0 0.0 0.0 0.00 0.00 0.00 56 1010.6
20260505022538 18 0 0.0 0.0 0.00 0.00 0.00 58 1010.6
20260505022041 18 0 0.0 0.0 0.00 0.00 0.00 59 1010.6
20260505021557 19 0 0.0 0.0 0.00 0.00 0.00 55 1010.6
20260505021036 19 0 0.0 0.0 0.00 0.00 0.00 56 1010.6
20260505020540 19 0 0.0 0.0 0.00 0.00 0.00 51 1010.6
20260505020056 20 0 0.0 0.0 0.00 0.00 0.00 50 1010.5
20260505015536 20 0 0.0 0.0 0.00 0.00 0.00 50 1010.5
20260505015036 20 0 0.0 0.0 0.00 0.00 0.00 51 1010.6
20260505014553 20 0 0.0 1.6 0.00 0.00 0.00 47 1010.5
20260505014035 21 0 0.0 1.6 0.00 0.00 0.00 45 1010.3
20260505013537 21 0 0.0 0.0 0.00 0.00 0.00 44 1010.4
20260505013051 21 0 0.0 0.0 0.00 0.00 0.00 43 1010.4
20260505012538 21 0 0.0 1.6 0.00 0.00 0.00 42 1010.3
20260505012041 21 0 0.0 3.2 0.00 0.00 0.00 41 1010.2
20260505011555 22 0 0.0 8.0 0.00 0.00 0.00 41 1010.3
20260505011041 22 0 0.0 8.0 0.00 0.00 0.00 40 1010.3
20260505010536 22 0 0.0 4.8 0.00 0.00 0.00 40 1010.2
20260505005536 22 0 0.0 0.0 0.00 0.00 0.00 39 1010.1
20260505005036 22 0 0.0 1.6 0.00 0.00 0.00 38 1010.0
20260505004552 22 0 0.0 6.4 0.00 0.00 0.00 38 1009.9
20260505004036 22 0 0.0 8.0 0.00 0.00 0.00 38 1009.8
20260505003539 22 163 0.0 8.0 0.00 0.00 0.00 38 1009.7
20260505003046 22 182 1.6 8.0 0.00 0.00 0.00 37 1009.6
20260505002534 23 207 0.0 6.4 0.00 0.00 0.00 37 1009.8
20260505002034 23 252 1.6 8.0 0.00 0.00 0.00 36 1009.8
20260505001550 23 258 1.6 8.0 0.00 0.00 0.00 36 1009.7
20260505001037 23 0 1.6 11.3 0.00 0.00 0.00 36 1009.7
20260505000538 23 225 1.6 11.3 0.00 0.00 0.00 36 1009.8
20260505000053 23 188 1.6 12.9 0.00 0.00 0.00 36 1009.8
20260504235535 23 180 3.2 12.9 0.00 0.00 0.00 36 1009.8
20260504235036 23 239 0.0 12.9 0.00 0.00 0.00 36 1009.7
20260504234544 23 173 3.2 16.1 0.00 0.00 0.00 36 1009.7
20260504234036 23 175 3.2 16.1 0.00 0.00 0.00 36 1009.6
20260504233540 23 177 4.8 16.1 0.00 0.00 0.00 36 1009.6
20260504233054 23 192 3.2 9.7 0.00 0.00 0.00 35 1009.5
20260504232537 23 259 3.2 8.0 0.00 0.00 0.00 35 1009.4
20260504232035 23 196 1.6 8.0 0.00 0.00 0.00 35 1009.5
20260504231548 24 0 3.2 8.0 0.00 0.00 0.00 35 1009.3
20260504231035 24 0 0.0 9.7 0.00 0.00 0.00 35 1009.3
20260504230535 24 173 1.6 11.3 0.00 0.00 0.00 35 1009.3
20260504230048 24 135 0.0 11.3 0.00 0.00 0.00 34 1009.3
20260504225535 24 277 3.2 12.9 0.00 0.00 0.00 34 1009.4
20260504225038 24 195 3.2 12.9 0.00 0.00 0.00 34 1009.3
20260504224548 25 200 4.8 16.1 0.00 0.00 0.00 34 1009.3
20260504224036 25 194 4.8 16.1 0.00 0.00 0.00 34 1009.4
20260504223535 25 220 3.2 12.9 0.00 0.00 0.00 34 1009.3
20260504223051 25 0 3.2 12.9 0.00 0.00 0.00 34 1009.3
20260504222536 25 192 6.4 14.5 0.00 0.00 0.00 34 1009.3
20260504222036 25 193 3.2 16.1 0.00 0.00 0.00 34 1009.4
20260504221548 25 188 4.8 19.3 0.00 0.00 0.00 33 1009.5
20260504221035 25 0 4.8 20.9 0.00 0.00 0.00 33 1009.4
20260504220536 25 222 4.8 20.9 0.00 0.00 0.00 33 1009.4
20260504220108 25 231 4.8 12.9 0.00 0.00 0.00 33 1009.4
20260504215536 25 200 1.6 12.9 0.00 0.00 0.00 34 1009.5
20260504215036 25 208 4.8 14.5 0.00 0.00 0.00 33 1009.5
20260504214552 25 259 4.8 14.5 0.00 0.00 0.00 33 1009.5
20260504214035 25 263 4.8 14.5 0.00 0.00 0.00 33 1009.5
20260504213535 25 246 4.8 14.5 0.00 0.00 0.00 33 1009.4
20260504213053 25 208 3.2 17.7 0.00 0.00 0.00 34 1009.4
20260504212535 25 239 6.4 17.7 0.00 0.00 0.00 33 1009.5
20260504212034 25 207 6.4 17.7 0.00 0.00 0.00 32 1009.5
20260504211554 25 116 6.4 16.1 0.00 0.00 0.00 32 1009.5
20260504211035 25 242 4.8 16.1 0.00 0.00 0.00 31 1009.5
20260504210536 25 169 4.8 14.5 0.00 0.00 0.00 33 1009.5
20260504210051 25 246 1.6 12.9 0.00 0.00 0.00 33 1009.4
20260504205536 25 223 3.2 16.1 0.00 0.00 0.00 31 1009.5
20260504205035 25 250 6.4 16.1 0.00 0.00 0.00 31 1009.6
20260504204547 25 193 4.8 20.9 0.00 0.00 0.00 31 1009.6
20260504204035 25 267 4.8 20.9 0.00 0.00 0.00 32 1009.6
20260504203535 25 159 6.4 19.3 0.00 0.00 0.00 31 1009.5
20260504203045 25 232 3.2 17.7 0.00 0.00 0.00 31 1009.7
20260504202535 25 182 4.8 16.1 0.00 0.00 0.00 32 1009.7
20260504202035 25 290 3.2 17.7 0.00 0.00 0.00 31 1010.0
20260504201551 25 175 4.8 17.7 0.00 0.00 0.00 31 1009.9
20260504201038 25 268 4.8 17.7 0.00 0.00 0.00 31 1009.9
20260504200537 25 176 4.8 17.7 0.00 0.00 0.00 31 1010.0
20260504200055 25 184 6.4 16.1 0.00 0.00 0.00 32 1010.0
20260504195535 24 239 4.8 14.5 0.00 0.00 0.00 33 1010.1
20260504195036 24 129 3.2 16.1 0.00 0.00 0.00 32 1010.1
20260504194549 25 289 6.4 17.7 0.00 0.00 0.00 32 1010.2
20260504194038 25 252 6.4 17.7 0.00 0.00 0.00 30 1010.1
20260504193536 26 255 3.2 17.7 0.00 0.00 0.00 30 1010.2
20260504193047 26 217 4.8 16.1 0.00 0.00 0.00 30 1010.2
20260504192534 26 153 6.4 14.5 0.00 0.00 0.00 30 1010.2
20260504192035 25 291 3.2 16.1 0.00 0.00 0.00 33 1010.3
20260504191557 25 205 3.2 17.7 0.00 0.00 0.00 30 1010.3
20260504191035 25 163 6.4 17.7 0.00 0.00 0.00 29 1010.5
20260504190534 25 88 3.2 14.5 0.00 0.00 0.00 30 1010.6
20260504185535 25 0 3.2 12.9 0.00 0.00 0.00 33 1010.6
20260504185034 25 238 3.2 16.1 0.00 0.00 0.00 30 1010.8
20260504184604 25 213 6.4 16.1 0.00 0.00 0.00 32 1010.7
20260504184037 25 70 6.4 14.5 0.00 0.00 0.00 31 1010.8
20260504183536 25 273 4.8 17.7 0.00 0.00 0.00 31 1010.9
20260504183051 25 269 4.8 17.7 0.00 0.00 0.00 30 1011.0
20260504182533 25 142 3.2 11.3 0.00 0.00 0.00 30 1011.0
20260504182035 25 132 1.6 19.3 0.00 0.00 0.00 30 1011.1
20260504181549 24 236 8.0 19.3 0.00 0.00 0.00 30 1011.3
20260504181033 25 157 3.2 14.5 0.00 0.00 0.00 30 1011.4
20260504180535 25 215 4.8 19.3 0.00 0.00 0.00 30 1011.3
20260504180049 25 259 4.8 19.3 0.00 0.00 0.00 30 1011.4
20260504175535 24 208 3.2 19.3 0.00 0.00 0.00 30 1011.5
20260504175035 24 244 4.8 19.3 0.00 0.00 0.00 30 1011.5
20260504174547 24 252 6.4 14.5 0.00 0.00 0.00 30 1011.6
20260504174034 24 240 3.2 14.5 0.00 0.00 0.00 30 1011.5
20260504173533 24 151 3.2 14.5 0.00 0.00 0.00 30 1011.6
20260504173052 24 110 4.8 12.9 0.00 0.00 0.00 30 1011.7
20260504172535 23 259 3.2 14.5 0.00 0.00 0.00 30 1011.8
20260504172033 23 106 3.2 14.5 0.00 0.00 0.00 31 1011.9
20260504171548 23 116 3.2 16.1 0.00 0.00 0.00 33 1012.0
20260504171036 23 166 1.6 16.1 0.00 0.00 0.00 31 1012.0
20260504170536 23 194 4.8 12.9 0.00 0.00 0.00 31 1012.2
20260504151035 21 250 3.2 14.5 0.00 0.00 0.00 36 1013.6
20260504150540 21 281 4.8 14.5 0.00 0.00 0.00 34 1013.6
20260504141038 19 74 0.0 8.0 0.00 0.00 0.00 47 1013.9
20260504140538 18 270 1.6 8.0 0.00 0.00 0.00 43 1014.0
20260504130539 15 183 1.6 9.7 0.00 0.00 0.00 50 1014.6
20260504110535 8 0 0.0 0.0 0.00 0.00 0.00 80 1015.1
20260504100535 8 0 0.0 0.0 0.00 0.00 0.00 74 1015.0
20260504081555 8 0 0.0 0.0 0.00 0.00 0.00 70 1015.3
20260504081034 9 0 0.0 0.0 0.00 0.00 0.00 72 1015.3
20260504080535 9 0 0.0 0.0 0.00 0.00 0.00 72 1015.3
20260504050538 7 0 0.0 0.0 0.00 0.00 0.00 83 1015.4
20260504045537 7 0 0.0 0.0 0.00 0.00 0.00 83 1015.3
20260504045038 7 0 0.0 0.0 0.00 0.00 0.00 83 1015.3
20260504044552 7 0 0.0 0.0 0.00 0.00 0.00 83 1015.2
20260504044038 7 0 0.0 0.0 0.00 0.00 0.00 83 1015.2
20260504043538 7 0 0.0 0.0 0.00 0.00 0.00 83 1015.2
20260504043047 7 0 0.0 0.0 0.00 0.00 0.00 83 1015.2
20260504042538 7 0 0.0 0.0 0.00 0.00 0.00 83 1015.1
20260504042040 7 0 0.0 0.0 0.00 0.00 0.00 84 1015.1
20260504041546 7 0 0.0 0.0 0.00 0.00 0.00 84 1015.2
20260504041038 7 0 0.0 0.0 0.00 0.00 0.00 85 1015.2
20260504040538 7 0 0.0 0.0 0.00 0.00 0.00 84 1015.2